When you browse on this site, cookies collect data to enhance your experience and personalize the content and advertising you see.
Visit our Privacy Policy to learn more. By continuing to use the site, you agree to this use of cookies and data.
  • Em Portugal
  • Lista de países
  • Para 7 dias
  • Temperatura da água
  • Mapas de satélite
  • Mapa do tempo
  • Widgets de tempo
  • user-avatar
    Iniciar Sessão

    Previsão horária em Galechnik

    Hoje, 26 Abril, Sexta-feira

    Tempo Temperatura Precipitação Vento Pressão Humidade
    00:00 +1°C° 0 mm 1 m/s 740 mmHg 82%
    01:00 -1°C° 0 mm 0 m/s 740 mmHg 83%
    02:00 -1°C° 0 mm 0 m/s 740 mmHg 83%
    03:00 -1°C° 0 mm 0 m/s 740 mmHg 82%
    04:00 -1°C° 0 mm 0 m/s 740 mmHg 81%
    05:00 +1°C° 0 mm 1 m/s 740 mmHg 77%
    06:00 +2°C° 0 mm 1 m/s 739 mmHg 72%
    07:00 +2°C° 0 mm 2 m/s 739 mmHg 68%
    08:00 +2°C° 0.2 mm 3 m/s 739 mmHg 64%
    09:00 +4°C° 0.2 mm 4 m/s 739 mmHg 60%
    10:00 +5°C° 0.2 mm 4 m/s 739 mmHg 57%
    11:00 +6°C° 0.3 mm 5 m/s 739 mmHg 54%
    12:00 +6°C° 0.3 mm 5 m/s 739 mmHg 52%
    13:00 +7°C° 0.3 mm 5 m/s 738 mmHg 49%
    14:00 +6°C° 0 mm 5 m/s 738 mmHg 49%
    15:00 +6°C° 0 mm 5 m/s 738 mmHg 49%
    16:00 +6°C° 0 mm 5 m/s 738 mmHg 49%
    17:00 +5°C° 0 mm 4 m/s 738 mmHg 53%
    18:00 +4°C° 0 mm 3 m/s 738 mmHg 57%
    19:00 +4°C° 0 mm 2 m/s 738 mmHg 62%
    20:00 +3°C° 0 mm 2 m/s 738 mmHg 66%
    21:00 +2°C° 0 mm 2 m/s 738 mmHg 70%
    22:00 +1°C° 0 mm 2 m/s 738 mmHg 74%
    23:00 +1°C° 0 mm 1 m/s 738 mmHg 76%

    Amanhã, 27 Abril, Sábado

    Tempo Temperatura Precipitação Vento Pressão Humidade
    00:00 +1°C° 0 mm 1 m/s 738 mmHg 78%
    01:00 0°C° 0 mm 1 m/s 738 mmHg 79%
    02:00 0°C° 0 mm 1 m/s 738 mmHg 79%
    03:00 0°C° 0 mm 1 m/s 738 mmHg 78%
    04:00 0°C° 0 mm 1 m/s 737 mmHg 78%
    05:00 -1°C° 0.1 mm 2 m/s 737 mmHg 76%
    06:00 0°C° 0.1 mm 3 m/s 736 mmHg 73%
    07:00 0°C° 0.1 mm 4 m/s 736 mmHg 71%
    08:00 +2°C° 0 mm 5 m/s 735 mmHg 66%
    09:00 +3°C° 0 mm 6 m/s 735 mmHg 60%
    10:00 +5°C° 0 mm 7 m/s 734 mmHg 55%
    11:00 +6°C° 0 mm 7 m/s 733 mmHg 52%
    12:00 +7°C° 0 mm 8 m/s 733 mmHg 49%
    13:00 +9°C° 0 mm 8 m/s 732 mmHg 46%
    14:00 +10°C° 0 mm 7 m/s 731 mmHg 45%
    15:00 +11°C° 0 mm 7 m/s 731 mmHg 44%
    16:00 +11°C° 0 mm 7 m/s 731 mmHg 43%
    17:00 +10°C° 0 mm 6 m/s 730 mmHg 49%
    18:00 +9°C° 0 mm 5 m/s 730 mmHg 56%
    19:00 +8°C° 0 mm 4 m/s 730 mmHg 62%
    20:00 +8°C° 0.3 mm 3 m/s 730 mmHg 71%
    21:00 +7°C° 0.3 mm 3 m/s 730 mmHg 79%
    22:00 +5°C° 0.3 mm 3 m/s 729 mmHg 88%
    23:00 +4°C° 1.2 mm 3 m/s 729 mmHg 89%

    Depois de amanhã, 28 Abril, Domingo

    Tempo Temperatura Precipitação Vento Pressão Humidade
    00:00 +3°C° 1.2 mm 3 m/s 729 mmHg 89%
    01:00 +1°C° 1.2 mm 4 m/s 728 mmHg 90%
    02:00 0°C° 2 mm 4 m/s 728 mmHg 91%
    03:00 -1°C° 2 mm 4 m/s 728 mmHg 92%
    04:00 -2°C° 2 mm 4 m/s 728 mmHg 93%
    05:00 -2°C° 0.9 mm 4 m/s 728 mmHg 93%
    06:00 -3°C° 0.9 mm 4 m/s 728 mmHg 93%
    07:00 -4°C° 0.9 mm 5 m/s 728 mmHg 92%
    08:00 -2°C° 0.3 mm 5 m/s 728 mmHg 91%
    09:00 -2°C° 0.3 mm 5 m/s 729 mmHg 90%
    10:00 -2°C° 0.3 mm 6 m/s 729 mmHg 88%
    11:00 -2°C° 0.1 mm 6 m/s 730 mmHg 85%
    12:00 -1°C° 0.1 mm 6 m/s 731 mmHg 82%
    13:00 -1°C° 0.1 mm 6 m/s 731 mmHg 79%
    14:00 +1°C° 0.1 mm 6 m/s 732 mmHg 74%
    15:00 +1°C° 0.1 mm 6 m/s 732 mmHg 70%
    16:00 +2°C° 0.1 mm 5 m/s 732 mmHg 65%
    17:00 +1°C° 0.1 mm 5 m/s 733 mmHg 68%
    18:00 0°C° 0.1 mm 4 m/s 733 mmHg 71%
    19:00 -1°C° 0.1 mm 4 m/s 733 mmHg 74%
    20:00 -2°C° 0 mm 4 m/s 734 mmHg 78%
    21:00 -2°C° 0 mm 3 m/s 734 mmHg 81%
    22:00 -4°C° 0 mm 3 m/s 735 mmHg 85%
    23:00 -4°C° 0 mm 3 m/s 735 mmHg 86%

    29 Abril, Segunda-feira

    Tempo Temperatura Precipitação Vento Pressão Humidade
    00:00 -5°C° 0 mm 3 m/s 735 mmHg 87%
    01:00 -5°C° 0 mm 3 m/s 735 mmHg 88%
    02:00 -6°C° 0 mm 3 m/s 736 mmHg 88%
    03:00 -6°C° 0 mm 3 m/s 736 mmHg 89%
    04:00 -7°C° 0 mm 3 m/s 737 mmHg 90%
    05:00 -6°C° 0 mm 3 m/s 737 mmHg 88%
    06:00 -6°C° 0 mm 3 m/s 737 mmHg 86%
    07:00 -5°C° 0 mm 3 m/s 738 mmHg 84%
    08:00 -4°C° 0 mm 4 m/s 738 mmHg 79%
    09:00 -3°C° 0 mm 4 m/s 739 mmHg 74%
    10:00 -2°C° 0 mm 4 m/s 739 mmHg 69%
    11:00 -1°C° 0.1 mm 4 m/s 739 mmHg 64%
    12:00 -1°C° 0.1 mm 4 m/s 739 mmHg 59%
    13:00 0°C° 0.1 mm 4 m/s 739 mmHg 55%
    14:00 0°C° 0.1 mm 4 m/s 739 mmHg 54%
    15:00 0°C° 0.1 mm 4 m/s 739 mmHg 53%
    16:00 0°C° 0.1 mm 4 m/s 739 mmHg 53%
    17:00 0°C° 0 mm 4 m/s 739 mmHg 56%
    18:00 0°C° 0 mm 3 m/s 739 mmHg 60%
    19:00 -1°C° 0 mm 3 m/s 739 mmHg 64%
    20:00 -2°C° 0 mm 2 m/s 739 mmHg 69%
    21:00 -3°C° 0 mm 2 m/s 739 mmHg 73%
    22:00 -4°C° 0 mm 2 m/s 739 mmHg 78%
    23:00 -5°C° 0 mm 2 m/s 739 mmHg 79%

    30 Abril, Terça-feira

    Tempo Temperatura Precipitação Vento Pressão Humidade
    00:00 -5°C° 0 mm 2 m/s 739 mmHg 80%
    01:00 -5°C° 0 mm 2 m/s 739 mmHg 81%
    02:00 -5°C° 0 mm 2 m/s 739 mmHg 81%
    03:00 -6°C° 0 mm 2 m/s 739 mmHg 82%
    04:00 -6°C° 0 mm 2 m/s 739 mmHg 82%
    05:00 -5°C° 0 mm 2 m/s 739 mmHg 77%
    06:00 -4°C° 0 mm 2 m/s 739 mmHg 73%
    07:00 -3°C° 0 mm 2 m/s 739 mmHg 68%
    08:00 -2°C° 0 mm 3 m/s 739 mmHg 62%
    09:00 -1°C° 0 mm 3 m/s 739 mmHg 56%
    10:00 0°C° 0 mm 3 m/s 738 mmHg 50%
    11:00 +1°C° 0 mm 3 m/s 738 mmHg 48%
    12:00 0°C° 0 mm 4 m/s 738 mmHg 47%
    13:00 +1°C° 0 mm 4 m/s 738 mmHg 45%
    14:00 +1°C° 0 mm 4 m/s 738 mmHg 45%
    15:00 +1°C° 0 mm 4 m/s 737 mmHg 46%
    16:00 +1°C° 0 mm 4 m/s 737 mmHg 46%
    17:00 +2°C° 0 mm 3 m/s 737 mmHg 51%
    18:00 +1°C° 0 mm 3 m/s 737 mmHg 55%
    19:00 +2°C° 0 mm 2 m/s 737 mmHg 59%
    20:00 +1°C° 0 mm 2 m/s 737 mmHg 63%
    21:00 -1°C° 0 mm 2 m/s 736 mmHg 67%
    22:00 -2°C° 0 mm 2 m/s 736 mmHg 71%
    23:00 -2°C° 0 mm 3 m/s 736 mmHg 71%

    1 Maio, Quarta-feira

    Tempo Temperatura Precipitação Vento Pressão Humidade
    00:00 -2°C° 0 mm 3 m/s 736 mmHg 72%
    01:00 -2°C° 0 mm 3 m/s 736 mmHg 73%
    02:00 -3°C° 0 mm 2 m/s 736 mmHg 76%
    03:00 -3°C° 0 mm 2 m/s 736 mmHg 80%
    04:00 -4°C° 0 mm 2 m/s 735 mmHg 83%
    05:00 -4°C° 0 mm 3 m/s 735 mmHg 81%
    06:00 -2°C° 0 mm 3 m/s 735 mmHg 79%
    07:00 0°C° 0 mm 3 m/s 735 mmHg 77%
    08:00 0°C° 0 mm 4 m/s 735 mmHg 71%
    09:00 +3°C° 0 mm 4 m/s 736 mmHg 65%
    10:00 +4°C° 0 mm 4 m/s 736 mmHg 60%
    11:00 +5°C° 0.1 mm 4 m/s 736 mmHg 57%
    12:00 +5°C° 0.1 mm 5 m/s 736 mmHg 55%
    13:00 +6°C° 0.1 mm 5 m/s 736 mmHg 53%
    14:00 +6°C° 0.1 mm 5 m/s 736 mmHg 53%
    15:00 +6°C° 0.1 mm 5 m/s 736 mmHg 54%
    16:00 +7°C° 0.1 mm 5 m/s 736 mmHg 54%
    17:00 +6°C° 0.1 mm 4 m/s 736 mmHg 59%
    18:00 +5°C° 0.1 mm 3 m/s 736 mmHg 64%
    19:00 +4°C° 0.1 mm 3 m/s 736 mmHg 69%
    20:00 +4°C° 0 mm 3 m/s 736 mmHg 72%
    21:00 +3°C° 0 mm 3 m/s 736 mmHg 75%
    22:00 +2°C° 0 mm 3 m/s 736 mmHg 78%
    23:00 +2°C° 0 mm 3 m/s 736 mmHg 75%
    Mostrar mais